| time (UTC) | temp F | wind direction | speed MPH | gust MPH | rain 1hr in | rain 24hr in | rain mn in | humidity % | barometer mb |
| 20260507020535 | 50 | 90 | 8.0 | 9.0 | 0.00 | 0.20 | 0.20 | 35 | 1017.0 |
| 20260507015534 | 49 | 86 | 8.0 | 9.0 | 0.00 | 0.20 | 0.20 | 34 | 1016.4 |
| 20260507014515 | 48 | 83 | 8.0 | 9.0 | 0.00 | 0.20 | 0.20 | 34 | 1015.7 |
| 20260507013515 | 47 | 80 | 8.0 | 9.0 | 0.00 | 0.20 | 0.20 | 33 | 1015.1 |
| 20260507012515 | 46 | 76 | 8.0 | 9.0 | 0.00 | 0.20 | 0.20 | 33 | 1014.5 |
| 20260507011515 | 46 | 73 | 8.0 | 10.0 | 0.00 | 0.20 | 0.20 | 32 | 1013.9 |
| 20260507010515 | 45 | 70 | 8.0 | 10.0 | 0.00 | 0.20 | 0.20 | 32 | 1013.3 |
| 20260507005515 | 44 | 67 | 8.0 | 10.0 | 0.00 | 0.20 | 0.20 | 31 | 1012.7 |
| 20260507004554 | 43 | 64 | 8.0 | 10.0 | 0.00 | 0.20 | 0.20 | 31 | 1012.1 |
| 20260507003515 | 42 | 61 | 8.0 | 10.0 | 0.00 | 0.20 | 0.20 | 30 | 1011.6 |
| 20260507002515 | 41 | 58 | 8.0 | 10.0 | 0.00 | 0.20 | 0.20 | 30 | 1011.0 |
| 20260507001515 | 41 | 55 | 8.0 | 10.0 | 0.00 | 0.20 | 0.20 | 29 | 1010.5 |
| 20260507000515 | 40 | 52 | 9.0 | 10.0 | 0.00 | 0.20 | 0.20 | 29 | 1009.9 |
| 20260506235515 | 39 | 50 | 9.0 | 10.0 | 0.00 | 0.20 | 0.20 | 28 | 1009.4 |
| 20260506234515 | 38 | 47 | 9.0 | 10.0 | 0.00 | 0.20 | 0.20 | 28 | 1008.9 |
| 20260506233532 | 38 | 44 | 9.0 | 11.0 | 0.00 | 0.20 | 0.20 | 27 | 1008.4 |
| 20260506232515 | 37 | 42 | 9.0 | 11.0 | 0.00 | 0.20 | 0.20 | 27 | 1007.9 |
| 20260506231515 | 36 | 39 | 9.0 | 11.0 | 0.00 | 0.20 | 0.20 | 27 | 1007.4 |
| 20260506230535 | 36 | 37 | 9.0 | 11.0 | 0.00 | 0.20 | 0.20 | 26 | 1007.0 |
| 20260506225554 | 35 | 35 | 9.0 | 11.0 | 0.00 | 0.20 | 0.20 | 26 | 1006.5 |
| 20260506224515 | 35 | 32 | 9.0 | 11.0 | 0.00 | 0.20 | 0.20 | 25 | 1006.1 |
| 20260506223515 | 34 | 30 | 9.0 | 11.0 | 0.00 | 0.20 | 0.20 | 25 | 1005.7 |
| 20260506222515 | 34 | 28 | 9.0 | 11.0 | 0.00 | 0.20 | 0.20 | 25 | 1005.3 |
| 20260506221515 | 33 | 26 | 9.0 | 11.0 | 0.00 | 0.20 | 0.20 | 24 | 1004.9 |
| 20260506220515 | 33 | 24 | 9.0 | 11.0 | 0.00 | 0.20 | 0.20 | 24 | 1004.5 |
| 20260506215515 | 32 | 22 | 9.0 | 11.0 | 0.00 | 0.20 | 0.20 | 24 | 1004.1 |
| 20260506214515 | 32 | 20 | 9.0 | 11.0 | 0.00 | 0.20 | 0.20 | 23 | 1003.8 |
| 20260506213515 | 31 | 18 | 9.0 | 11.0 | 0.00 | 0.20 | 0.20 | 23 | 1003.4 |
| 20260506212515 | 31 | 17 | 10.0 | 11.0 | 0.00 | 0.20 | 0.20 | 23 | 1003.1 |
| 20260506211534 | 31 | 15 | 10.0 | 12.0 | 0.00 | 0.20 | 0.20 | 23 | 1002.8 |
| 20260506210515 | 31 | 14 | 10.0 | 12.0 | 0.00 | 0.20 | 0.20 | 22 | 1002.5 |
| 20260506205515 | 30 | 12 | 10.0 | 12.0 | 0.00 | 0.20 | 0.20 | 22 | 1002.2 |
| 20260506204515 | 30 | 11 | 10.0 | 12.0 | 0.00 | 0.20 | 0.20 | 22 | 1002.0 |
| 20260506203515 | 30 | 9 | 10.0 | 12.0 | 0.00 | 0.20 | 0.20 | 22 | 1001.7 |
| 20260506202515 | 30 | 8 | 10.0 | 12.0 | 0.00 | 0.20 | 0.20 | 21 | 1001.5 |
| 20260506201515 | 30 | 7 | 10.0 | 12.0 | 0.00 | 0.20 | 0.20 | 21 | 1001.3 |
| 20260506200515 | 30 | 6 | 10.0 | 12.0 | 0.00 | 0.20 | 0.20 | 21 | 1001.1 |
| 20260506195515 | 30 | 5 | 10.0 | 12.0 | 0.00 | 0.20 | 0.20 | 21 | 1000.9 |
| 20260506194534 | 30 | 4 | 10.0 | 12.0 | 0.00 | 0.20 | 0.20 | 21 | 1000.7 |
| 20260506193515 | 30 | 3 | 10.0 | 12.0 | 0.00 | 0.20 | 0.20 | 21 | 1000.6 |
| 20260506192515 | 30 | 3 | 10.0 | 12.0 | 0.00 | 0.20 | 0.20 | 20 | 1000.4 |
| 20260506190515 | 31 | 1 | 10.0 | 12.0 | 0.00 | 0.20 | 0.20 | 20 | 1000.2 |
| 20260506185515 | 31 | 1 | 10.0 | 12.0 | 0.00 | 0.20 | 0.20 | 20 | 1000.1 |
| 20260506184515 | 31 | 1 | 10.0 | 12.0 | 0.00 | 0.20 | 0.20 | 20 | 1000.1 |
| 20260506183515 | 32 | 0 | 10.0 | 12.0 | 0.00 | 0.20 | 0.20 | 20 | 1000.0 |
| 20260506182515 | 32 | 0 | 10.0 | 12.0 | 0.00 | 0.20 | 0.20 | 20 | 1000.0 |
| 20260506181554 | 32 | 0 | 10.0 | 12.0 | 0.00 | 0.20 | 0.20 | 20 | 999.9 |
| 20260506180515 | 33 | 0 | 10.0 | 12.0 | 0.00 | 0.20 | 0.20 | 20 | 999.9 |
| 20260506175534 | 33 | 0 | 10.0 | 12.0 | 0.00 | 0.20 | 0.20 | 20 | 1000.0 |
| 20260506174515 | 34 | 0 | 10.0 | 12.0 | 0.00 | 0.20 | 0.20 | 20 | 1000.0 |
| 20260506173535 | 34 | 0 | 10.0 | 12.0 | 0.00 | 0.20 | 0.20 | 20 | 1000.0 |
| 20260506172515 | 35 | 1 | 10.0 | 12.0 | 0.00 | 0.20 | 0.20 | 20 | 1000.1 |
| 20260506171515 | 35 | 1 | 10.0 | 12.0 | 0.00 | 0.20 | 0.20 | 20 | 1000.2 |
| 20260506170515 | 36 | 2 | 10.0 | 12.0 | 0.00 | 0.20 | 0.20 | 20 | 1000.2 |
| 20260506165515 | 37 | 2 | 10.0 | 12.0 | 0.00 | 0.20 | 0.20 | 20 | 1000.4 |
| 20260506164515 | 37 | 3 | 10.0 | 12.0 | 0.00 | 0.20 | 0.20 | 20 | 1000.5 |
| 20260506163515 | 38 | 4 | 10.0 | 12.0 | 0.00 | 0.20 | 0.20 | 21 | 1000.6 |
| 20260506162515 | 39 | 4 | 10.0 | 12.0 | 0.00 | 0.20 | 0.20 | 21 | 1000.8 |
| 20260506161515 | 39 | 5 | 10.0 | 12.0 | 0.00 | 0.20 | 0.20 | 21 | 1000.9 |
| 20260506160515 | 40 | 6 | 10.0 | 12.0 | 0.00 | 0.20 | 0.20 | 21 | 1001.1 |
| 20260506155515 | 41 | 7 | 10.0 | 12.0 | 0.00 | 0.20 | 0.20 | 21 | 1001.3 |
| 20260506154515 | 42 | 8 | 10.0 | 12.0 | 0.00 | 0.20 | 0.20 | 21 | 1001.6 |
| 20260506153515 | 42 | 10 | 10.0 | 12.0 | 0.00 | 0.20 | 0.20 | 22 | 1001.8 |
| 20260506152515 | 43 | 11 | 10.0 | 12.0 | 0.00 | 0.20 | 0.20 | 22 | 1002.0 |
| 20260506151515 | 44 | 12 | 10.0 | 12.0 | 0.00 | 0.20 | 0.20 | 22 | 1002.3 |
| 20260506150515 | 45 | 14 | 10.0 | 12.0 | 0.00 | 0.20 | 0.20 | 22 | 1002.6 |
| 20260506145516 | 46 | 15 | 10.0 | 11.0 | 0.00 | 0.20 | 0.20 | 23 | 1002.9 |
| 20260506144515 | 47 | 17 | 10.0 | 11.0 | 0.00 | 0.20 | 0.20 | 23 | 1003.2 |
| 20260506143515 | 47 | 19 | 9.0 | 11.0 | 0.00 | 0.20 | 0.20 | 23 | 1003.5 |
| 20260506142515 | 48 | 21 | 9.0 | 11.0 | 0.00 | 0.20 | 0.20 | 23 | 1003.9 |
| 20260506141515 | 49 | 22 | 9.0 | 11.0 | 0.00 | 0.20 | 0.20 | 24 | 1004.2 |
| 20260506140515 | 50 | 24 | 9.0 | 11.0 | 0.00 | 0.20 | 0.20 | 24 | 1004.6 |
| 20260506135515 | 51 | 26 | 9.0 | 11.0 | 0.00 | 0.20 | 0.20 | 24 | 1005.0 |
| 20260506134515 | 52 | 28 | 9.0 | 11.0 | 0.00 | 0.20 | 0.20 | 25 | 1005.4 |
| 20260506133515 | 53 | 31 | 9.0 | 11.0 | 0.00 | 0.20 | 0.20 | 25 | 1005.8 |
| 20260506132534 | 54 | 33 | 9.0 | 11.0 | 0.00 | 0.20 | 0.20 | 25 | 1006.2 |
| 20260506131515 | 54 | 35 | 9.0 | 11.0 | 0.00 | 0.20 | 0.20 | 26 | 1006.6 |
| 20260506130515 | 55 | 37 | 9.0 | 11.0 | 0.00 | 0.20 | 0.20 | 26 | 1007.1 |
| 20260506125535 | 56 | 40 | 9.0 | 11.0 | 0.00 | 0.20 | 0.20 | 27 | 1007.5 |
| 20260506124515 | 57 | 42 | 9.0 | 11.0 | 0.00 | 0.20 | 0.20 | 27 | 1008.0 |
| 20260506123534 | 58 | 45 | 9.0 | 11.0 | 0.00 | 0.20 | 0.20 | 27 | 1008.5 |
| 20260506122516 | 59 | 48 | 9.0 | 10.0 | 0.00 | 0.20 | 0.20 | 28 | 1009.0 |
| 20260506122333 | 59 | 50 | 9.0 | 10.0 | 0.00 | 0.20 | 0.20 | 28 | 1009.5 |
| 20260506072732 | 70 | 151 | 6.0 | 7.0 | 0.04 | 0.20 | 0.20 | 45 | 1028.7 |